• In Uzbekistan
  • List of Countries
  • For 7 days
  • Water Temperature
  • Weather Map
  • Weather Widgets
  • user-avatar
    Login

    Hourly Weather Encamp

    Today, 25 January, Saturday

    Time Temperature Precipitation Wind Pressure Humidity
    00:00 -4°C° 0 mm 2 mps 622 mmHg 85%
    01:00 -4°C° 0 mm 2 mps 621 mmHg 87%
    02:00 -4°C° 0 mm 2 mps 621 mmHg 88%
    03:00 -4°C° 0 mm 2 mps 621 mmHg 89%
    04:00 -3°C° 0 mm 2 mps 621 mmHg 90%
    05:00 -3°C° 0 mm 2 mps 621 mmHg 90%
    06:00 -3°C° 0 mm 2 mps 621 mmHg 91%
    07:00 0°C° 0 mm 1 mps 622 mmHg 90%
    08:00 +1°C° 0 mm 1 mps 622 mmHg 88%
    09:00 +2°C° 0 mm 1 mps 623 mmHg 87%
    10:00 +2°C° 0 mm 1 mps 623 mmHg 87%
    11:00 +2°C° 0 mm 2 mps 623 mmHg 87%
    12:00 +2°C° 0 mm 2 mps 623 mmHg 86%
    13:00 +3°C° 0.1 mm 1 mps 622 mmHg 88%
    14:00 +3°C° 0.1 mm 1 mps 622 mmHg 90%
    15:00 +3°C° 0.1 mm 1 mps 621 mmHg 92%
    16:00 +2°C° 0.1 mm 1 mps 621 mmHg 93%
    17:00 +2°C° 0.1 mm 1 mps 621 mmHg 94%
    18:00 +1°C° 0.1 mm 1 mps 621 mmHg 95%
    19:00 +1°C° 0 mm 1 mps 621 mmHg 95%
    20:00 +1°C° 0 mm 1 mps 621 mmHg 95%
    21:00 +1°C° 0 mm 1 mps 621 mmHg 95%
    22:00 0°C° 0 mm 1 mps 621 mmHg 95%
    23:00 0°C° 0 mm 1 mps 621 mmHg 95%

    Tomorrow, 26 January, Sunday

    Time Temperature Precipitation Wind Pressure Humidity
    00:00 0°C° 0 mm 1 mps 620 mmHg 95%
    01:00 0°C° 0 mm 1 mps 620 mmHg 94%
    02:00 0°C° 0 mm 1 mps 620 mmHg 94%
    03:00 0°C° 0 mm 1 mps 620 mmHg 93%
    04:00 -1°C° 0 mm 1 mps 620 mmHg 92%
    05:00 -1°C° 0 mm 1 mps 620 mmHg 91%
    06:00 -2°C° 0 mm 1 mps 620 mmHg 90%
    07:00 -1°C° 0 mm 1 mps 620 mmHg 89%
    08:00 0°C° 0 mm 1 mps 621 mmHg 87%
    09:00 +1°C° 0 mm 1 mps 622 mmHg 86%
    10:00 +2°C° 0 mm 1 mps 622 mmHg 86%
    11:00 +3°C° 0 mm 1 mps 622 mmHg 85%
    12:00 +4°C° 0 mm 1 mps 623 mmHg 84%
    13:00 +3°C° 0 mm 1 mps 623 mmHg 85%
    14:00 +3°C° 0 mm 1 mps 622 mmHg 86%
    15:00 +3°C° 0 mm 1 mps 622 mmHg 87%
    16:00 +2°C° 0 mm 1 mps 622 mmHg 89%
    17:00 +1°C° 0 mm 1 mps 622 mmHg 92%
    18:00 -2°C° 0 mm 0 mps 621 mmHg 94%
    19:00 -1°C° 0 mm 1 mps 621 mmHg 92%
    20:00 -1°C° 0 mm 1 mps 621 mmHg 90%
    21:00 -2°C° 0 mm 1 mps 622 mmHg 88%
    22:00 -2°C° 0 mm 1 mps 621 mmHg 88%
    23:00 -2°C° 0 mm 1 mps 621 mmHg 87%

    Day after tomorrow, 27 January, Monday

    Time Temperature Precipitation Wind Pressure Humidity
    00:00 -2°C° 0 mm 1 mps 621 mmHg 87%
    01:00 -2°C° 0 mm 1 mps 621 mmHg 84%
    02:00 -2°C° 0 mm 1 mps 621 mmHg 82%
    03:00 -2°C° 0 mm 1 mps 621 mmHg 79%
    04:00 -2°C° 0 mm 1 mps 621 mmHg 76%
    05:00 -2°C° 0 mm 1 mps 621 mmHg 72%
    06:00 -2°C° 0 mm 1 mps 621 mmHg 69%
    07:00 -1°C° 0 mm 1 mps 621 mmHg 67%
    08:00 0°C° 0 mm 1 mps 622 mmHg 66%
    09:00 +1°C° 0 mm 0 mps 622 mmHg 65%
    10:00 +2°C° 0 mm 1 mps 622 mmHg 67%
    11:00 +3°C° 0 mm 1 mps 622 mmHg 69%
    12:00 +4°C° 0 mm 1 mps 622 mmHg 72%
    13:00 +4°C° 0 mm 1 mps 622 mmHg 76%
    14:00 +3°C° 0 mm 1 mps 621 mmHg 80%
    15:00 +3°C° 0 mm 1 mps 620 mmHg 85%
    16:00 +1°C° 0 mm 2 mps 620 mmHg 87%
    17:00 -1°C° 0 mm 2 mps 620 mmHg 90%
    18:00 -1°C° 0 mm 2 mps 619 mmHg 93%
    19:00 -1°C° 0.1 mm 2 mps 619 mmHg 93%
    20:00 -1°C° 0.1 mm 2 mps 619 mmHg 94%
    21:00 -1°C° 0.1 mm 2 mps 619 mmHg 94%
    22:00 -1°C° 0.1 mm 2 mps 619 mmHg 94%
    23:00 -1°C° 0.1 mm 2 mps 619 mmHg 95%

    28 January, Tuesday

    Time Temperature Precipitation Wind Pressure Humidity
    00:00 -1°C° 0.1 mm 2 mps 619 mmHg 95%
    01:00 -1°C° 0 mm 2 mps 619 mmHg 95%
    02:00 +1°C° 0 mm 1 mps 619 mmHg 95%
    03:00 +1°C° 0 mm 1 mps 618 mmHg 94%
    04:00 +1°C° 0 mm 1 mps 619 mmHg 95%
    05:00 +1°C° 0 mm 1 mps 619 mmHg 95%
    06:00 0°C° 0 mm 1 mps 619 mmHg 95%
    07:00 +1°C° 0.1 mm 1 mps 619 mmHg 94%
    08:00 +1°C° 0.1 mm 1 mps 620 mmHg 93%
    09:00 +2°C° 0.1 mm 1 mps 621 mmHg 93%
    10:00 +2°C° 0.1 mm 1 mps 621 mmHg 92%
    11:00 +3°C° 0.1 mm 1 mps 621 mmHg 90%
    12:00 +3°C° 0.1 mm 1 mps 621 mmHg 89%
    13:00 +3°C° 0 mm 1 mps 621 mmHg 89%
    14:00 +3°C° 0 mm 1 mps 621 mmHg 89%
    15:00 +3°C° 0 mm 1 mps 621 mmHg 89%
    16:00 +2°C° 0 mm 1 mps 621 mmHg 90%
    17:00 +1°C° 0 mm 1 mps 620 mmHg 92%
    18:00 0°C° 0 mm 1 mps 620 mmHg 93%
    19:00 -1°C° 0 mm 1 mps 620 mmHg 92%
    20:00 -1°C° 0 mm 1 mps 620 mmHg 92%
    21:00 -2°C° 0 mm 1 mps 620 mmHg 91%
    22:00 -2°C° 0 mm 1 mps 620 mmHg 90%
    23:00 -2°C° 0 mm 1 mps 620 mmHg 88%

    29 January, Wednesday

    Time Temperature Precipitation Wind Pressure Humidity
    00:00 -2°C° 0 mm 1 mps 620 mmHg 87%
    01:00 -2°C° 0 mm 1 mps 620 mmHg 85%
    02:00 -2°C° 0 mm 1 mps 620 mmHg 83%
    03:00 -2°C° 0 mm 1 mps 620 mmHg 80%
    04:00 -2°C° 0 mm 1 mps 620 mmHg 78%
    05:00 -2°C° 0 mm 1 mps 620 mmHg 76%
    06:00 -2°C° 0 mm 1 mps 620 mmHg 73%
    07:00 -1°C° 0 mm 1 mps 621 mmHg 71%
    08:00 0°C° 0 mm 1 mps 622 mmHg 69%
    09:00 0°C° 0 mm 0 mps 622 mmHg 68%
    10:00 +2°C° 0 mm 1 mps 623 mmHg 69%
    11:00 +3°C° 0 mm 1 mps 623 mmHg 69%
    12:00 +4°C° 0 mm 1 mps 623 mmHg 70%
    13:00 +4°C° 0 mm 1 mps 623 mmHg 73%
    14:00 +4°C° 0 mm 1 mps 623 mmHg 75%
    15:00 +4°C° 0 mm 1 mps 623 mmHg 77%
    16:00 +3°C° 0 mm 1 mps 622 mmHg 78%
    17:00 +1°C° 0 mm 1 mps 622 mmHg 80%
    18:00 0°C° 0 mm 1 mps 621 mmHg 81%
    19:00 0°C° 0 mm 1 mps 622 mmHg 76%
    20:00 0°C° 0 mm 1 mps 622 mmHg 71%
    21:00 0°C° 0 mm 1 mps 622 mmHg 66%
    22:00 0°C° 0 mm 1 mps 622 mmHg 67%
    23:00 0°C° 0 mm 1 mps 622 mmHg 68%

    30 January, Thursday

    Time Temperature Precipitation Wind Pressure Humidity
    00:00 0°C° 0 mm 1 mps 622 mmHg 70%
    01:00 +1°C° 0 mm 1 mps 622 mmHg 69%
    02:00 +1°C° 0 mm 1 mps 622 mmHg 68%
    03:00 +1°C° 0 mm 1 mps 622 mmHg 67%
    04:00 +1°C° 0 mm 1 mps 621 mmHg 69%
    05:00 +1°C° 0 mm 1 mps 621 mmHg 72%
    06:00 +1°C° 0 mm 1 mps 621 mmHg 74%
    07:00 +2°C° 0 mm 1 mps 621 mmHg 78%
    08:00 +3°C° 0 mm 1 mps 622 mmHg 81%
    09:00 +4°C° 0 mm 1 mps 622 mmHg 85%
    10:00 +5°C° 0 mm 1 mps 623 mmHg 84%
    11:00 +6°C° 0 mm 1 mps 623 mmHg 83%
    12:00 +6°C° 0 mm 1 mps 623 mmHg 82%
    13:00 +6°C° 0 mm 1 mps 623 mmHg 83%
    14:00 +6°C° 0 mm 1 mps 623 mmHg 84%
    15:00 +6°C° 0 mm 1 mps 623 mmHg 85%
    16:00 +5°C° 0 mm 1 mps 622 mmHg 87%
    17:00 +4°C° 0 mm 1 mps 622 mmHg 89%
    18:00 +3°C° 0 mm 1 mps 622 mmHg 91%
    19:00 +3°C° 0 mm 1 mps 622 mmHg 90%
    20:00 +3°C° 0 mm 1 mps 622 mmHg 89%
    21:00 +3°C° 0 mm 1 mps 623 mmHg 88%
    22:00 +3°C° 0 mm 1 mps 623 mmHg 88%
    23:00 +3°C° 0 mm 1 mps 623 mmHg 89%
    Show more